Weather History for El Centro, CA

Change the Weather History Date:

Friday, February 22, 2013

  Actual Average Record
Temperature  
Mean Temperature 52 °F -  
Max Temperature 68 °F 69 °F 82 °F (2002)
Min Temperature 37 °F 48 °F 37 °F (2006)
Degree Days  
Heating Degree Days 12    
Growing Degree Days 2 (Base 50)    
Moisture  
Dew Point 24 °F    
Average Humidity 41    
Maximum Humidity 82    
Minimum Humidity 13    
Precipitation  
Precipitation 0.78 in - - ()
Sea Level Pressure  
Sea Level Pressure 30.17 in    
Wind  
Wind Speed 4 mph (West)    
Max Wind Speed 8 mph    
Max Gust Speed -    
Visibility 10 miles    
Events      
Averages and records for this station are not official NWS values.
T = Trace of Precipitation, MM = Missing Value Source: NWS Daily Summary

Daily Weather History Graph

Daily Weather History Graph

Search for Another Location

Airport:

Trip Planner

Search our weather history database for the weather conditions in past years. The results will help you decide how hot, cold, wet, or windy it might be!

Date:

Astronomy

Feb. 22, 2013 Rise Set
Actual Time 6:18 AM PST 5:34 PM PST
Civil Twilight 5:53 AM PST 5:59 PM PST
Nautical Twilight 5:24 AM PST 6:28 PM PST
Astronomical Twilight 4:55 AM PST 6:56 PM PST
Moon 2:55 PM PST (2/22) 3:59 AM PST (2/22)
Length of Visible Light 12h 06m
Length of Day
11h 16m
Waxing Gibbous, 91% of the Moon is Illuminated
Feb 22
Waxing Gibbous
Feb 25
Full
Mar 4
Last Quarter
Mar 11
New
Mar 19
First Quarter

Hourly Weather History & Observations

Time (PST) Temp. Windchill Dew Point Humidity Pressure Visibility Wind Dir Wind Speed Gust Speed Precip Events Conditions
12:56 AM 39.0 °F - 34.0 °F 82% 30.13 in 10.0 mi Calm Calm - N/A   Clear
1:56 AM 43.0 °F 38.2 °F 34.0 °F 71% 30.13 in 10.0 mi WSW 8.1 mph - N/A   Clear
2:56 AM 41.0 °F 37.1 °F 34.0 °F 76% 30.12 in 10.0 mi West 5.8 mph - N/A   Clear
3:56 AM 37.9 °F 32.7 °F 32.0 °F 79% 30.14 in 10.0 mi West 6.9 mph - N/A   Clear
4:56 AM 37.0 °F 33.3 °F 28.9 °F 73% 30.15 in 10.0 mi WSW 4.6 mph - N/A   Clear
5:56 AM 37.0 °F 33.3 °F 30.9 °F 79% 30.16 in 10.0 mi WSW 4.6 mph - N/A   Clear
6:56 AM 37.0 °F 33.3 °F 28.9 °F 73% 30.19 in 10.0 mi West 4.6 mph - N/A   Clear
7:56 AM 48.0 °F - 32.0 °F 54% 30.22 in 10.0 mi Calm Calm - N/A   Clear
8:56 AM 54.0 °F - 32.0 °F 43% 30.23 in 10.0 mi West 3.5 mph - N/A   Clear
9:56 AM 59.0 °F - 27.0 °F 29% 30.24 in 10.0 mi West 4.6 mph - N/A   Clear
10:56 AM 64.0 °F - 23.0 °F 21% 30.24 in 10.0 mi NNW 6.9 mph - N/A   Clear
11:56 AM 66.0 °F - 17.1 °F 15% 30.21 in 10.0 mi NNE 8.1 mph - N/A   Clear
12:56 PM 66.9 °F - 17.1 °F 15% 30.19 in 10.0 mi North 5.8 mph - N/A   Clear
1:56 PM 66.9 °F - 18.0 °F 15% 30.17 in 10.0 mi WNW 3.5 mph - 0.78 in   Clear
2:56 PM 68.0 °F - 15.1 °F 13% 30.15 in 10.0 mi NNW 6.9 mph - N/A   Clear
3:56 PM 68.0 °F - 15.1 °F 13% 30.14 in 10.0 mi North 4.6 mph - N/A   Clear
4:56 PM 66.0 °F - 16.0 °F 15% 30.14 in 10.0 mi Calm Calm - N/A   Clear
5:56 PM 60.1 °F - 17.1 °F 19% 30.16 in 10.0 mi East 3.5 mph - N/A   Clear
6:56 PM 57.0 °F - 19.9 °F 24% 30.17 in 10.0 mi South 4.6 mph - N/A   Clear
7:56 PM 53.1 °F - 21.0 °F 29% 30.17 in 10.0 mi SSE 4.6 mph - N/A   Clear
8:56 PM 50.0 °F - 24.1 °F 36% 30.18 in 10.0 mi SSW 3.5 mph - N/A   Clear
9:56 PM 50.0 °F - 23.0 °F 35% 30.19 in 10.0 mi SW 3.5 mph - N/A   Clear
10:56 PM 46.0 °F 43.1 °F 21.0 °F 37% 30.19 in 10.0 mi West 5.8 mph - N/A   Clear
11:56 PM 46.9 °F - 21.9 °F 37% 30.18 in 10.0 mi West 6.9 mph - N/A   Clear